Погода в Донецке

Украина / Донецкая область     48°00′57″N   37°48′10″E
темп.,
°C
ветер,
м/с
пор.,
м/с
влажн.,
%
обл.,
%
осадки,
мм/ч
давл.,
гПа
погр.,
м
17 июня, чт
чт1700:00+20с3582100 1.5 1011114
03:00+20св51577100 1.8 1010577
06:00+19в41387100 1.4 1011632
09:00+18в41296100 12.1 1012768
12:00+21всв61185100 4.4 1012821
15:00+21всв61191100 8.6 1012874
18:00+18юв2497100 12.9 1013293
21:00+17юв2695100 15.4 1014240
18 июня, пт
пт1800:00+16вюв3797100 0.0 1016317
03:00+16вюв249851 0.1 1017203
06:00+17в239624 0.0 1018125
09:00+20в357893 0.0 1018766
12:00+21всв5576100 0.2 1019777
15:00+20всв6876100 0.5 10191005
18:00+21всв586981 0.1 10191055
21:00+19всв41076100 0.1 1019646
19 июня, сб
сб1900:00+19всв4127411 0.0 1019534
03:00+18всв512730 0.0 1018498
06:00+17всв512740 0.0 1018499
09:00+21в610610 0.0 1018631
12:00+26в710520 0.0 10181042
15:00+27в812460 0.0 10171355
18:00+26в7135499 0.0 10171346
21:00+23всв7155988 0.0 1017806
20 июня, вс
вс2000:00+21всв71753100 0.0 1017689
03:00+20всв718506 0.0 1016611
06:00+19в71849100 0.0 1016618
09:00+22в71848100 0.0 1016645
12:00+26в81439100 0.0 1015870
15:00+24в6145484 0.0 1015864
18:00+26в6135720 0.3 10141083
21:00+24в718536 0.5 1013601
21 июня, пн
пн2100:00+23в616560 0.0 1013490
03:00+22вюв615500 0.0 1013506
06:00+21вюв515471 0.0 1014548
09:00+25вюв614380 0.0 1014659
12:00+29вюв711330 0.0 1013935
15:00+30вюв711351 0.0 10131300
18:00+29в6124099 0.0 10131363
21:00+25в61649100 0.3 1013527